Theta_e
348 348 348 346 347 350 352 352 353 352 351 350 349 349 347 349 351 351 350 348 347 349 351 351 350 350 349 350 350 351 351 351 350 350 348 347 348 349 348 347 348 348 348
348 345 346 345 346 349 353 353 352 351 349 349 347 347 350 352 352 350 346 347 344 342 343 343 343 343 343 344 346 348 348 348 349 350 349 348 347 348 346 345 344 345 346
349 347 343 343 347 352 351 352 353 352 349 350 350 350 350 351 348 344 343 342 341 338 336 336 334 335 336 337 337 339 342 343 344 345 346 347 346 346 346 344 342 342 344
348 347 346 347 351 352 353 352 350 349 348 348 347 348 347 347 348 343 340 337 335 333 332 330 331 330 332 333 334 335 336 339 341 343 344 345 344 344 344 343 342 341 341
346 345 347 349 355 351 352 351 349 347 344 344 342 344 344 347 343 339 335 332 330 327 326 326 327 326 328 330 332 332 332 333 335 336 335 335 338 339 340 341 341 341 340
347 345 346 351 354 353 351 351 346 344 340 337 338 339 341 341 341 338 332 329 327 326 325 326 325 324 324 327 327 328 329 330 330 331 332 331 331 332 337 338 338 339 338
348 349 351 352 353 347 344 343 344 340 338 336 337 333 339 340 339 334 332 326 324 323 323 323 323 324 324 324 324 326 327 329 329 329 329 329 328 330 331 331 333 336 337
352 349 346 346 345 340 337 334 334 337 335 332 331 332 325 328 335 330 330 324 323 321 320 321 323 324 324 324 324 324 325 328 328 328 327 326 327 328 328 329 330 332 335
340 346 338 335 336 335 331 330 331 333 331 330 326 327 320 316 317 325 322 320 322 320 320 321 323 323 324 324 324 324 325 325 326 327 326 325 326 326 327 327 327 329 330
336 337 335 333 333 332 329 328 328 330 325 324 321 323 322 320 313 309 315 318 319 319 321 321 322 323 324 323 324 323 323 324 324 324 324 324 325 326 326 326 326 327 328
335 329 328 325 327 327 325 323 321 321 319 318 318 319 319 322 321 313 308 311 317 319 320 320 322 322 323 323 324 323 322 321 321 321 322 322 322 323 324 325 325 326 326
324 323 322 323 324 324 322 320 320 319 318 319 319 319 317 316 313 313 310 312 312 317 320 320 320 321 322 323 322 321 320 320 320 320 320 320 320 321 321 322 323 324 325
322 319 321 322 322 322 320 320 320 320 320 319 320 318 319 316 318 315 313 310 310 316 318 322 320 321 321 322 322 321 322 320 319 318 318 318 319 318 318 318 320 322 322
319 318 320 319 320 319 318 319 319 318 319 319 319 319 317 317 318 317 313 309 307 313 315 316 318 319 321 321 321 321 320 319 318 316 317 317 318 317 316 316 316 316 317
322 320 319 317 318 317 317 317 317 318 319 319 318 319 318 319 319 317 314 311 309 305 308 314 314 319 319 321 321 322 320 319 318 317 316 317 317 316 315 315 314 314 315
318 316 316 315 313 315 315 315 315 317 318 317 317 319 318 317 318 318 318 318 314 310 307 313 314 318 320 320 320 321 321 319 317 316 317 317 315 314 314 314 314 313 313
315 313 313 312 311 312 313 314 315 315 316 317 319 318 317 317 315 316 317 316 315 313 307 313 315 318 319 318 318 320 320 320 319 317 316 316 314 313 313 313 313 312 312
313 311 311 310 310 309 311 313 314 315 316 317 318 317 315 315 315 315 314 315 314 314 312 310 314 313 315 317 316 317 316 317 317 317 316 315 314 312 311 311 310 311 308
311 310 310 309 309 310 311 313 314 315 317 319 318 315 315 315 314 313 313 313 313 313 312 310 310 313 313 314 313 315 314 315 315 316 315 314 313 313 312 311 310 309 305
309 309 309 308 309 309 311 312 314 315 318 318 319 316 315 314 313 313 312 313 311 310 310 309 309 309 309 312 311 308 307 310 310 314 316 313 312 313 312 311 311 309 306
308 307 307 307 308 307 306 312 314 315 317 316 315 314 314 310 307 306 309 310 309 307 307 306 306 306 306 305 304 304 303 304 307 312 312 312 313 313 313 312 312 309 305
307 306 305 305 305 303 297 300 309 315 314 313 311 313 313 310 309 305 304 303 302 303 303 303 303 302 304 303 303 300 300 300 299 311 308 309 310 310 311 311 307 305 304
306 304 304 305 303 302 296 296 302 314 313 310 308 308 308 307 307 308 305 304 303 301 300 302 301 301 300 302 301 301 300 300 300 305 308 303 308 307 309 309 306 304 303
303 302 302 303 303 299 294 295 299 310 308 306 307 306 306 305 299 299 302 303 303 302 301 300 300 300 300 300 301 301 301 302 304 306 305 299 307 306 308 310 306 304 302
303 302 302 302 303 301 294 294 301 308 307 305 304 300 303 300 294 293 300 299 299 300 299 297 297 295 294 294 296 301 299 296 295 299 303 299 303 302 303 307 307 304 301
304 303 301 302 297 302 292 293 298 306 306 304 302 301 295 296 292 291 297 296 294 294 296 297 300 300 300 301 299 302 300 294 294 295 303 297 298 299 296 304 303 304 303
Wind_Speed
6 5 4 4 3 3 3 3 2 3 4 5 5 5 5 5 6 5 5 9 13 12 12 13 13 14 14 13 13 13 12 11 11 10 9 9 11 12 13 13 12 13 15
6 6 5 4 4 3 2 3 3 4 4 4 5 4 5 5 6 6 5 4 12 15 15 15 15 15 15 15 15 14 14 12 12 11 11 10 11 11 12 13 13 12 12
7 5 5 4 3 2 3 3 3 2 2 2 4 4 5 6 4 4 5 5 5 11 15 17 16 16 16 16 15 15 14 13 13 12 11 10 10 10 12 12 12 14 13
8 7 5 4 1 2 1 3 3 1 1 2 4 5 4 3 1 3 5 6 6 7 7 16 15 15 15 15 15 15 15 14 14 14 13 10 10 11 11 12 12 12 11
8 5 4 2 4 5 4 3 3 2 1 5 6 5 3 1 0 4 6 6 9 9 8 11 11 12 14 14 15 16 17 16 16 16 16 17 16 14 13 13 13 13 14
6 5 3 1 5 5 5 4 5 4 6 4 6 3 3 3 2 3 4 5 7 9 9 10 8 8 11 13 15 17 18 17 17 18 17 18 18 17 15 14 13 14 14
5 5 4 6 5 6 6 5 3 3 3 4 6 3 2 5 2 2 2 5 8 9 10 9 7 7 7 11 14 18 18 18 18 19 17 17 18 18 18 16 16 16 15
9 8 7 6 5 5 7 7 6 3 0 5 3 1 2 4 4 2 3 5 10 9 9 9 9 7 8 8 12 16 17 18 18 19 19 19 19 19 19 18 18 17 16
9 10 11 5 3 7 6 3 2 3 3 3 7 3 2 2 5 2 5 7 11 9 9 8 8 7 9 9 11 12 18 18 19 19 19 19 19 20 19 19 18 17 17
9 9 7 6 4 4 4 3 1 2 2 1 1 4 5 3 3 5 6 11 11 10 11 8 8 9 10 9 12 13 18 19 20 20 20 19 20 20 19 19 19 18 18
10 8 10 9 5 2 4 4 4 4 2 2 2 1 3 2 2 3 7 11 8 7 7 7 7 8 9 9 9 13 19 20 20 20 20 20 21 21 20 20 18 18 18
7 10 7 7 2 3 4 5 4 5 3 4 3 4 3 2 3 3 6 10 10 7 6 4 5 6 8 8 10 18 18 17 18 20 20 20 20 20 21 21 20 19 17
8 10 7 3 3 3 6 5 5 3 2 4 4 4 3 3 3 3 4 6 6 8 3 3 7 7 8 8 10 18 16 16 16 17 18 19 19 19 20 20 20 18 17
10 13 8 5 4 4 5 4 3 3 4 4 5 5 3 4 3 3 3 5 6 5 5 5 9 8 10 9 11 18 11 14 14 16 16 16 18 19 18 18 18 18 18
11 11 10 8 7 6 5 2 3 3 3 4 4 4 4 3 2 2 2 1 3 5 6 9 8 11 9 9 11 12 12 15 12 13 15 15 16 18 18 17 17 17 17
11 11 11 10 6 6 3 3 2 2 3 2 3 5 4 3 1 1 2 1 2 4 5 8 9 11 11 10 11 12 12 13 7 8 14 14 14 16 17 17 17 17 16
10 10 10 10 6 5 4 3 3 4 5 4 4 4 4 4 4 3 3 4 4 4 6 8 8 9 12 11 13 12 11 11 11 9 16 12 13 14 16 16 16 16 14
11 9 9 9 7 6 5 4 4 4 3 3 3 4 5 4 4 5 5 5 5 6 8 11 10 9 10 11 13 12 11 10 12 10 14 11 10 13 13 14 14 13 12
12 10 9 8 8 6 5 3 4 2 0 1 3 5 5 6 6 6 6 6 6 6 7 8 10 9 9 9 12 11 11 12 11 17 8 10 14 9 10 10 9 8 11
11 11 10 9 7 6 5 3 1 2 1 3 5 6 5 6 8 9 7 6 7 9 8 8 9 9 10 11 10 11 12 11 12 12 8 9 15 15 9 6 4 8 10
11 10 9 8 7 6 5 2 2 2 3 5 6 5 6 8 9 7 6 7 9 8 9 10 9 10 10 11 12 10 11 11 12 9 11 11 11 10 11 10 7 12 12
10 9 9 9 8 6 8 6 2 3 5 6 6 6 6 8 7 6 7 8 8 9 9 10 10 11 13 12 10 11 11 12 9 6 13 11 9 10 11 12 9 9 14
10 10 9 8 9 9 12 11 7 5 6 7 7 7 7 7 10 10 7 6 6 3 6 9 11 12 14 13 13 13 12 12 11 13 12 9 9 11 11 12 7 8 12
9 9 9 9 9 10 13 11 7 7 7 7 8 8 8 9 11 10 10 10 10 10 11 9 9 10 11 12 11 11 11 11 11 10 8 5 12 13 12 11 7 10 9
9 9 8 10 9 10 13 14 9 6 7 9 9 11 9 9 11 13 10 11 11 10 8 6 8 8 9 9 9 9 8 9 10 10 5 8 12 13 10 10 8 17 8
9 7 9 9 8 8 13 13 10 5 7 5 6 7 13 11 10 13 11 11 12 12 13 12 10 8 8 8 5 9 8 8 8 6 8 9 10 9 7 5 11 11 13
Wind_Direction
183 185 190 200 211 213 229 258 307 328 311 309 316 320 327 329 324 324 321 24 12 13 20 12 10 8 4 356 350 345 340 331 321 309 290 294 284 279 285 288 289 285 282
184 190 197 207 216 228 263 304 302 318 346 336 328 323 312 329 340 349 352 25 40 34 31 23 19 15 10 4 358 352 349 341 331 319 307 290 276 277 284 287 291 290 291
188 197 205 216 220 246 261 278 309 314 308 313 313 317 339 346 342 18 15 20 33 52 29 25 24 18 15 8 3 359 355 347 339 331 320 303 296 284 276 272 282 292 291
190 192 193 201 223 251 343 67 120 176 301 348 348 321 347 308 21 32 42 28 25 17 17 17 10 9 8 7 1 358 360 0 354 344 339 324 312 310 301 288 281 287 293
201 207 201 160 97 100 107 99 90 11 46 24 325 299 308 223 327 72 51 41 36 19 360 358 357 5 2 3 1 355 352 355 352 355 359 354 345 332 324 311 302 289 290
199 204 203 168 130 114 97 65 51 26 39 342 289 301 266 161 101 80 53 30 25 11 5 354 338 349 356 4 1 355 348 342 343 343 349 348 342 339 332 322 319 310 298
174 172 130 120 123 93 82 73 74 62 18 333 275 224 159 186 166 51 32 11 9 360 354 349 347 346 347 353 351 346 343 341 337 336 339 339 335 334 331 329 327 318 302
94 81 82 60 53 82 72 47 42 30 121 311 281 279 264 209 219 345 8 356 4 347 346 351 351 359 350 343 345 340 349 343 339 336 338 335 332 328 325 322 321 319 319
80 89 102 64 82 49 54 35 12 269 222 247 30 334 295 309 328 17 348 342 342 343 343 348 357 355 352 343 342 351 353 346 348 344 342 339 334 327 326 322 319 318 317
87 77 17 121 40 69 113 103 6 254 243 157 103 55 43 1 342 315 333 330 338 343 352 351 358 355 353 348 349 350 345 347 347 348 345 342 339 333 330 331 327 322 319
79 68 85 18 31 12 91 92 75 75 52 80 83 117 77 103 61 317 319 327 336 354 341 349 353 352 351 345 345 352 348 352 351 349 348 346 341 334 330 328 326 322 318
89 68 37 54 7 78 90 78 83 82 89 99 110 80 68 21 21 335 330 325 323 344 348 6 357 0 348 348 349 353 356 347 344 344 347 349 346 342 337 331 324 320 321
109 111 76 77 8 29 55 73 75 84 72 76 63 82 83 65 19 4 336 302 301 318 319 290 345 349 347 346 352 350 2 356 352 349 344 341 342 342 341 336 332 324 319
136 119 119 127 107 75 75 68 104 94 82 82 74 58 63 48 28 7 323 311 322 319 333 345 339 348 341 348 346 336 350 3 355 341 335 337 336 340 344 340 337 332 327
120 117 125 116 100 88 80 77 64 68 60 55 66 71 64 53 25 12 25 261 280 329 338 358 350 356 338 339 352 337 337 350 353 342 333 339 342 340 339 340 339 334 330
113 116 120 110 104 92 83 66 86 89 104 85 82 87 69 28 38 13 7 327 339 331 312 349 347 356 347 344 349 338 341 314 360 343 333 333 338 337 334 333 333 335 334
112 110 110 106 112 100 83 100 105 116 97 89 105 110 102 30 17 354 346 351 343 335 331 333 338 350 336 344 346 339 342 341 345 9 335 320 326 330 329 331 329 331 339
104 103 96 96 96 84 80 108 104 91 104 135 146 124 67 28 358 9 347 343 344 347 330 338 336 333 342 335 335 333 342 339 337 359 313 308 328 332 325 325 325 341 10
104 94 88 78 70 62 68 74 75 96 172 91 69 83 49 13 13 357 340 341 346 338 342 328 325 332 333 335 330 335 341 331 336 328 317 338 333 324 308 325 346 19 356
87 80 67 65 66 61 56 52 131 166 130 79 92 64 39 18 10 354 339 348 357 349 342 324 335 326 332 344 331 334 331 334 333 327 328 343 320 317 308 305 350 8 332
85 86 88 85 86 69 35 344 167 135 87 83 66 44 40 26 39 10 338 356 5 347 338 332 336 327 336 338 339 333 322 323 325 304 337 340 333 326 334 337 351 352 339
91 90 83 81 78 65 6 5 359 89 83 59 44 31 21 31 22 30 17 23 29 3 345 332 334 331 333 324 330 327 318 325 328 333 325 326 328 317 337 335 355 341 343
89 81 76 75 65 46 11 15 345 69 59 50 38 25 23 32 15 2 0 349 23 356 351 326 329 332 323 331 323 321 320 317 313 316 325 325 315 324 337 326 346 348 338
86 78 70 65 64 45 17 11 351 68 66 54 45 30 30 35 28 358 349 349 345 345 348 332 333 332 331 327 318 310 304 314 309 319 12 301 325 332 331 322 25 342 348
83 72 61 55 51 43 15 17 6 51 60 54 54 39 28 38 16 357 351 346 342 347 331 309 300 298 292 282 307 321 347 332 330 326 33 343 329 325 318 313 0 340 352
86 77 64 52 46 37 30 20 5 40 57 67 63 55 48 33 17 12 355 350 342 345 335 336 341 342 335 341 291 340 338 335 333 317 357 330 332 341 321 299 341 338 344